Vorticity
9 9 9 10 11 11 10 10 5 8 11 12 12 14 14 10 12 14 14 5 10 9 9 17 -5 -17 42 -11 46 40 13 1 19 -2 -0 -14 -5 7
9 9 9 9 10 10 11 11 11 12 11 8 7 10 11 12 13 9 5 21 24 6 7 15 31 34 -7 7 33 32 16 -0 10 9 5 13 12 9
9 8 7 7 8 7 7 8 9 9 10 11 11 11 12 12 10 9 9 10 7 9 15 27 6 15 29 30 22 24 -5 19 5 2 13 19 6 -1
6 6 7 9 8 9 9 9 7 7 6 6 7 9 10 10 10 13 14 13 10 9 11 12 8 23 3 3 7 -4 22 4 15 8 6 6 7 12
5 7 11 10 9 8 7 7 8 10 10 10 9 7 5 7 10 10 8 9 10 12 15 12 12 10 11 20 24 18 -2 -5 7 4 6 8 8 6
8 12 11 8 9 7 10 10 10 9 9 9 11 13 13 12 8 8 9 11 11 8 7 12 14 13 15 10 7 8 26 21 4 8 14 4 5 4
12 10 9 8 8 9 9 11 10 9 10 12 12 12 12 13 14 14 13 13 15 15 9 10 13 12 11 12 15 12 10 12 8 9 14 20 12 16
10 10 9 9 9 10 9 9 12 13 14 13 14 14 13 10 9 9 11 12 12 8 17 15 8 12 13 11 12 13 13 15 12 13 10 13 12 13
9 11 8 10 10 9 11 10 14 16 14 14 10 6 6 7 8 9 9 9 10 10 10 10 11 9 9 12 13 11 10 13 13 13 14 15 13 13
11 8 9 11 9 10 10 17 17 11 8 5 6 7 8 10 10 8 8 10 13 15 17 18 18 19 15 10 10 9 11 12 12 12 11 12 16 14
9 6 9 10 9 10 13 17 11 8 5 6 8 11 10 8 8 8 8 8 11 12 15 15 14 13 13 20 24 21 15 11 12 12 10 11 12 13
1 7 10 10 9 10 16 14 10 6 7 8 12 10 10 11 11 11 12 13 13 12 11 9 12 13 14 8 12 17 22 22 14 11 11 11 9 9
11 5 9 10 11 11 16 12 8 7 7 10 10 9 9 12 12 11 11 10 10 10 10 10 8 12 13 18 9 10 17 19 20 17 13 10 10 11
17 12 6 10 12 13 17 10 6 7 10 11 10 8 12 10 10 10 9 8 8 10 12 11 10 9 9 10 14 14 15 20 19 20 21 16 12 10
13 11 7 10 11 14 18 10 6 9 11 10 7 9 10 10 11 11 11 10 10 11 11 11 10 10 8 8 9 13 17 14 20 18 18 20 21 18
12 12 5 11 11 18 16 8 7 9 11 9 8 9 10 11 12 12 12 13 13 15 14 12 12 12 11 11 11 13 13 16 13 18 18 17 20 22
13 10 6 11 13 19 12 7 9 10 11 9 7 9 10 10 12 10 9 12 13 15 19 15 11 11 12 14 15 14 12 12 13 14 11 13 16 17
13 8 8 11 17 17 9 8 9 11 11 8 8 10 11 10 8 7 8 9 9 11 15 17 11 10 10 14 18 17 16 16 13 12 11 13 6 12
16 5 10 12 19 13 8 10 11 12 11 8 9 10 10 8 7 9 11 11 12 12 6 19 13 9 8 8 12 10 12 14 14 15 15 14 13 11
17 4 10 12 17 11 9 10 11 12 11 10 10 9 8 8 10 11 12 12 12 12 18 9 12 14 10 8 7 3 10 8 6 8 10 7 9 17
19 5 9 14 16 10 9 10 11 11 11 11 9 9 9 11 14 13 11 11 10 11 11 16 15 7 11 13 12 11 12 11 10 9 9 9 8 10
18 7 9 15 14 10 9 8 10 11 11 10 9 10 12 14 14 12 10 9 10 10 11 11 12 17 11 8 12 14 12 9 7 5 6 14 13 10
18 8 9 16 13 10 9 8 11 12 10 10 10 12 14 15 14 13 14 14 12 11 11 11 11 12 13 16 11 13 13 12 8 9 15 16 13 13
Height
3018 3015 3012 3010 3007 3004 3001 2998 2995 2992 2989 2987 2987 2986 2986 2985 2983 2983 2981 2984 2986 2986 2986 2989 2992 2992 2995 2998 2999 3000 3003 3006 3009 3012 3016 3019 3023 3027
3013 3010 3007 3005 3002 3000 2997 2994 2991 2989 2986 2981 2980 2980 2979 2979 2979 2977 2977 2977 2978 2979 2980 2980 2980 2983 2986 2985 2982 2986 2991 2993 2997 3002 3005 3010 3013 3017
3009 3005 3002 2999 2997 2995 2992 2989 2987 2984 2983 2980 2976 2973 2971 2972 2970 2970 2970 2970 2971 2972 2970 2972 2971 2974 2976 2977 2975 2977 2979 2985 2987 2990 2995 2999 3003 3008
3003 3001 2998 2995 2992 2988 2986 2984 2982 2979 2977 2975 2974 2971 2968 2966 2964 2964 2964 2961 2961 2962 2963 2962 2962 2964 2964 2965 2967 2969 2969 2971 2977 2980 2985 2989 2993 2997
2998 2995 2992 2989 2986 2983 2980 2977 2975 2973 2970 2967 2966 2965 2963 2961 2960 2958 2955 2955 2954 2953 2953 2955 2955 2955 2954 2954 2956 2959 2960 2961 2965 2970 2975 2978 2982 2984
2993 2989 2986 2984 2980 2977 2974 2971 2968 2966 2963 2961 2958 2957 2955 2953 2952 2951 2950 2949 2948 2947 2945 2945 2945 2944 2945 2946 2947 2948 2950 2951 2954 2959 2963 2967 2970 2972
2985 2982 2980 2976 2974 2971 2968 2965 2962 2959 2957 2954 2952 2950 2947 2945 2944 2942 2941 2940 2939 2939 2937 2936 2937 2936 2936 2935 2936 2937 2939 2942 2945 2946 2949 2953 2954 2958
2978 2975 2973 2969 2966 2964 2961 2958 2954 2952 2950 2947 2946 2944 2941 2938 2937 2935 2934 2933 2931 2930 2929 2929 2927 2927 2926 2925 2926 2927 2928 2929 2931 2932 2934 2937 2940 2944
2972 2969 2966 2962 2960 2957 2953 2951 2948 2945 2943 2941 2940 2938 2937 2934 2932 2930 2928 2926 2924 2923 2920 2921 2919 2918 2917 2918 2916 2917 2918 2918 2918 2918 2920 2921 2925 2930
2965 2962 2959 2956 2952 2949 2946 2943 2941 2939 2938 2936 2934 2932 2930 2927 2925 2922 2921 2919 2918 2916 2912 2910 2909 2908 2908 2908 2906 2905 2905 2906 2905 2905 2906 2909 2913 2917
2958 2955 2952 2949 2945 2943 2938 2936 2935 2934 2931 2929 2927 2924 2922 2919 2917 2914 2912 2909 2908 2907 2905 2900 2900 2898 2897 2897 2895 2895 2894 2893 2892 2893 2894 2896 2899 2903
2952 2948 2945 2941 2938 2935 2931 2930 2929 2927 2925 2923 2920 2917 2915 2912 2910 2906 2904 2902 2899 2897 2896 2892 2891 2888 2886 2888 2887 2885 2882 2881 2881 2880 2882 2885 2887 2890
2943 2940 2938 2934 2931 2927 2924 2923 2922 2920 2919 2916 2913 2911 2908 2905 2902 2899 2897 2895 2892 2890 2888 2883 2881 2880 2876 2874 2876 2875 2872 2871 2869 2869 2869 2871 2874 2875
2935 2932 2930 2927 2924 2920 2917 2916 2915 2913 2911 2909 2906 2904 2901 2898 2895 2893 2891 2887 2884 2882 2880 2876 2872 2869 2866 2864 2863 2864 2861 2860 2858 2857 2856 2858 2859 2862
2927 2924 2922 2920 2916 2912 2910 2909 2908 2906 2904 2902 2899 2897 2894 2891 2889 2886 2883 2880 2876 2875 2871 2867 2864 2861 2857 2854 2852 2853 2851 2850 2848 2847 2846 2846 2847 2848
2919 2916 2914 2912 2908 2905 2904 2902 2901 2899 2897 2895 2893 2891 2888 2885 2883 2878 2875 2871 2867 2866 2863 2858 2855 2851 2848 2845 2842 2843 2842 2839 2839 2837 2836 2836 2836 2837
2911 2908 2906 2903 2901 2898 2897 2896 2894 2893 2890 2888 2886 2883 2880 2878 2875 2871 2867 2863 2859 2856 2853 2850 2846 2842 2839 2836 2833 2834 2833 2831 2829 2827 2825 2826 2828 2827
2902 2901 2899 2896 2893 2892 2890 2889 2888 2885 2883 2881 2878 2875 2873 2870 2867 2864 2859 2855 2851 2848 2845 2841 2838 2834 2831 2828 2827 2824 2824 2822 2821 2819 2816 2814 2818 2819
2895 2893 2891 2888 2886 2885 2884 2883 2881 2878 2876 2874 2871 2868 2866 2864 2860 2855 2851 2847 2843 2840 2838 2834 2830 2826 2821 2819 2821 2818 2815 2813 2811 2810 2809 2806 2805 2809
2887 2885 2883 2881 2879 2878 2878 2877 2874 2872 2870 2868 2865 2862 2859 2855 2852 2848 2843 2839 2835 2832 2829 2827 2823 2819 2814 2812 2810 2812 2810 2805 2802 2801 2801 2800 2797 2797
2880 2879 2877 2874 2873 2872 2872 2870 2868 2866 2864 2861 2859 2856 2852 2847 2844 2840 2836 2832 2827 2823 2820 2818 2815 2810 2806 2803 2802 2803 2802 2798 2794 2791 2791 2789 2789 2789
2873 2872 2870 2867 2866 2866 2865 2864 2862 2859 2857 2854 2852 2848 2844 2840 2835 2831 2827 2823 2820 2815 2812 2809 2806 2802 2798 2794 2791 2791 2791 2789 2786 2782 2781 2781 2780 2779
2865 2865 2863 2861 2860 2860 2859 2858 2856 2854 2851 2849 2846 2842 2838 2833 2829 2824 2820 2816 2811 2807 2803 2800 2796 2792 2789 2785 2782 2781 2780 2779 2776 2775 2774 2771 2768 2768